DELTA 1 DEB, 7055

Orbit data source: Space-Track

DELTA 1 DEB, 7055 is space debris in LEO originally from a launch on Tue, 06 Nov 1973 UTC launched from the Air Force Western Test Range (AFWTR). Debris objects in space refer to the collection of defunct objects orbiting the Earth. Examples of debris include non-operational satellites, rocket bodies, and fragments generated from explosions, collisions, or faulty payload assembly.

Loading next visibility...
Identifier
7055, 1973-086AX
Orbit
LEO
Country
Flag of USUS
Related business
Manufacturer
Unknown
Mission
Spacecraft
Bus & Motor
Unknown
Mass
Unknown
Launch date (UTC)
1973-11-06 (53 years ago)
Launch vehicle
Unknown
Launch site
Air Force Western Test Range (AFWTR)
Object type
Payload
Rocket body
Debris
Shape & HBR
Unknown shape, 0.1 m
Radar Cross Section
Medium (>0.1 m² and <1 m²)

Expand to show TLE details & history
Last TLE update: 12 hours ago

TLE from 12 hours ago
0 DELTA 1 DEB
1  7055U 73086AX  26263.14758285  .00000011  00000-0  65637-3 0  9992
2  7055 102.6624 333.2770 0344677  18.9792   9.0100 11.84227629284941
Epoch: 2026-09-20T03:32Z
TLE epoch observation values (Epoch: 2026-09-20T03:32:31.158Z)
Latitude
27.91938°
Longitude
-85.70236°
Altitude
1,478.724 km
Speed
7.247 km/s
True Right ascension
21h 45m 53s
True Declination
27° 47' 25"
Sunlit
Object was in full shadow at epoch
Visualization orbit readout
Latitude
Unknown
Longitude
Unknown
Altitude
Unknown
Speed
Unknown
Apparent Right ascension
Unknown
Apparent Declination
Unknown
Sunlit
N/A
Visualization observer readout
Local Sidereal Time
08:48:36
Azimuth
Unknown
Elevation
Unknown
Doppler factor
Unknown
Orbital elements
Apogee altitude
2,030.099 km
Perigee altitude
1,469.786 km
Semi-major axis
8,128.08 km
Eccentricity
0.03447
Inclination
102.6624°
RAAN
333.277°
Arg. of periapsis
18.9792°
True anomaly
9.65598°
Mean anomaly
9.01°
Eccentric anomaly
9.33017°
Mean motion
2.96184 °/min
Orbital period
121.55 mins
BSTAR
0.00065637
Loading maneuver chart data...
Computing Atmospheric mass density...
Loading historical data...
Loading historical data...
Loading historical data...
Loading historical data...
Loading historical data...
Loading historical data...
Loading historical data...

Documentation

Showing up to 5 results
|